Regional Weather Roundup
Issued by NWS State College, PA

Home | Current Version | Previous Version | Text Only | Print | Product List | Glossary Off
Versions: 1 2 3 4 5 6 7 8 9 10 11 12 13 14 15 16 17 18 19 20 21 22 23 24 25 26 27 28 29 30 31 32 33 34 35 36 37 38 39 40 41 42 43 44 45 46 47 48 49 50

000
ASUS41 KCTP 200210
RWRCTP

REGIONAL WEATHER ROUNDUP
NATIONAL WEATHER SERVICE STATE COLLEGE PA
1000 PM EDT SAT AUG 19 2017

Note: "fair" indicates few or no clouds below 12,000 feet with no
significant weather and/or obstructions to visibility.

* = STATION THAT DOES NOT REPORT PRECIPITATION /E.G. RAIN...SNOW...ETC/
    THUNDER OR FOG.

PAZ002>004-007>009-013>016-020>023-029>032-200300-
WESTERN PENNSYLVANIA

CITY           SKY/WX    TMP DP  RH WIND       PRES   REMARKS
ERIE           CLEAR     71  58  63 NW7       29.98R
MEADVILLE      CLEAR     65  60  84 NW3       30.01R
FRANKLIN*      CLEAR     63  55  77 NW6       30.02R
NEW CASTLE     FAIR      64  62  93 CALM      30.01R
BEAVER COUNTY  NOT AVBL
BUTLER*        CLEAR     63  63 100 CALM      30.02R FOG
PITTSBURGH INT CLEAR     65  64  97 S3        30.00R
PITTSBURGH     CLEAR     64  60  87 SE5       30.00R
INDIANA*       PTCLDY    61  61 100 CALM      30.04R FOG
LATROBE        CLEAR     63  63 100 CALM      30.02R
WASHINGTON CO* CLEAR     63  61  94 SW5       30.01R
$$

PAZ004>006-010>012-017>019-024>028-033>037-041-042-045-046-049>053-200300-
CENTRAL PENNSYLVANIA

CITY           SKY/WX    TMP DP  RH WIND       PRES   REMARKS
BRADFORD       CLEAR     62  58  86 W7        30.01R
DUBOIS         FOG       59  57  93 W5        30.01R VSB 1/2
CLEARFIELD     PTCLDY    60  60 100 S5        30.01R
JOHNSTOWN      CLEAR     60  57  89 SW8       30.04R
ALTOONA        CLEAR     61  60  97 SW5       30.01R
STATE COLLEGE  NOT AVBL
WILLIAMSPORT   MOCLDY    68  64  87 W10       29.92R
SELINSGROVE    PTCLDY    63  63 100 CALM      29.96R
FT INDIANTOWN  PTCLDY    64  64 100 CALM      29.95R
CAPITAL CITY   PTCLDY    67  61  81 W5        29.96R
HARRISBURG     PTCLDY    67  63  87 S7        29.96R
YORK           CLOUDY    65  62  90 CALM      29.98R
$$

PAZ038>040-043-044-047-048-054-055-060>062-067>071-200300-
EASTERN PENNSYLVANIA

CITY           SKY/WX    TMP DP  RH WIND       PRES   REMARKS
SCRANTON       LGT RAIN  63  62  97 CALM      29.94F
MOUNT POCONO   RAIN      63  59  87 N7G20     29.98R
ALLENTOWN      RAIN      69  62  78 VRB3      29.90F
QUAKERTOWN*    CLOUDY    70  64  83 NW3       29.94R
READING        CLOUDY    66  66 100 SW5       29.93R
LANCASTER      PTCLDY    67  64  90 W6        29.96R
COATESVILLE    CLOUDY    68  61  77 W5        29.97S
POTTSTOWN      CLOUDY    70  61  73 W6        29.94R
BLUE BELL      PTCLDY    73  63  68 CALM      29.94R
DOYLESTOWN     PTCLDY    76  63  64 W10G22    29.92R
WILLOW GROVE   NOT AVBL
NORTH PHILA    CLEAR     80  66  62 SW6       29.92R
PHILADELPHIA   PTCLDY    81  68  64 SW6       29.91R
$$




USA.gov is the U.S. government's official web portal to all federal, state and local government web resources and services.